{"data":{"norad_id":65863,"intl_designator":"2025-223K","name":"STARLINK-35469","alt_names":[],"object_type":"PAYLOAD","status":"ACTIVE","operator":null,"country":"US","launch_date":"2025-10-03","launch_site_code":"AFWTR","launch_vehicle":null,"mission":null,"orbit_class":"UNKNOWN","rcs_meters":null,"size_class":null,"mass_kg":null,"dimensions":null,"purposes":["comms"],"wikipedia_slug":null,"has_3d_model":false,"image_url":null,"decayed_at":null,"tle_current":{"epoch":"2026-09-20T22:44:33.462528Z","epoch_age_seconds":67528,"freshness":"FRESH","line1":"1 65863U 25223K   26263.94760952  .00005294  00000+0  16775-3 0  9991","line2":"2 65863  53.1569 103.4583 0001374  92.5490 267.5670 15.34394592 54150","mean_motion":15.34394592,"eccentricity":0.0001374,"inclination_deg":53.1569,"raan_deg":103.4583,"arg_perigee_deg":92.549,"mean_anomaly_deg":267.567,"bstar":0.00016775,"rev_number":5415,"period_min":93.848088849364,"perigee_km":461.77938031246,"apogee_km":463.65924762754,"semimajor_km":6840.85631397,"source":"CELESTRAK","updated_at":"2026-09-21T09:00:35.727052Z"}}}